WetterOnline ( http://www.wetteronline.de )

Wetter aktuell Köln

Aktuelles Wetter: Roleber (162m)

6-stündlich | Neueste Meldungen
Ortszeit Temperatur Wetter
Sa, 21.04. 2:00 17.5° C wolkig
Fr, 20.04. 20:00 24.4° C wolkig
Fr, 20.04. 14:00 26.6° C wolkig
Fr, 20.04. 8:00 12.7° C wolkig
Fr, 20.04. 2:00 15.5° C wolkig
Do, 19.04. 20:00 23.4° C leicht bewölkt
Do, 19.04. 14:00 25.8° C wolkenlos
Do, 19.04. 8:00 15.1° C wolkenlos
Ortszeit Temperatur Wetter
Sa, 21.04. 3:30 15.7° C bedeckt
Sa, 21.04. 3:20 15.7° C bedeckt
Sa, 21.04. 3:10 15.9° C bedeckt
Sa, 21.04. 3:00 16.3° C bedeckt
Sa, 21.04. 2:50 16.3° C bedeckt
Sa, 21.04. 2:40 16.6° C wolkig
Sa, 21.04. 2:30 16.9° C wolkig
Sa, 21.04. 2:00 17.5° C wolkig
Sa, 21.04. 1:30 17.4° C wolkig
Sa, 21.04. 1:00 17.1° C wolkig
Sa, 21.04. 0:30 17.9° C wolkig
Ortszeit Relative Feuchte Sichtweite
Sa, 21.04. 2:00 73% 11 km
Fr, 20.04. 20:00 40% 40 km
Fr, 20.04. 14:00 37% 35 km
Fr, 20.04. 8:00 69% 40 km
Fr, 20.04. 2:00 55% 65 km
Do, 19.04. 20:00 40% 50 km
Do, 19.04. 14:00 34% 40 km
Do, 19.04. 8:00 63% 19 km
Ortszeit Relative Feuchte Sichtweite
Sa, 21.04. 3:30 78% 9 km
Sa, 21.04. 3:20 78% -
Sa, 21.04. 3:10 78% -
Sa, 21.04. 3:00 77% 10 km
Sa, 21.04. 2:50 77% -
Sa, 21.04. 2:40 76% -
Sa, 21.04. 2:30 75% 11 km
Sa, 21.04. 2:00 73% 11 km
Sa, 21.04. 1:30 75% 11 km
Sa, 21.04. 1:00 76% 11 km
Sa, 21.04. 0:30 72% 16 km
Ortszeit Niederschlagsmenge Niederschlagsart
Sa, 21.04. 2:00 0.0 l/m2 in 6 Std. -
Fr, 20.04. 20:00 0.0 l/m2 in 12 Std. -
Fr, 20.04. 14:00 0.0 l/m2 in 6 Std. -
Fr, 20.04. 8:00 0.0 l/m2 in 12 Std. -
Fr, 20.04. 2:00 0.0 l/m2 in 6 Std. -
Do, 19.04. 20:00 0.0 l/m2 in 12 Std. -
Do, 19.04. 14:00 0.0 l/m2 in 6 Std. -
Do, 19.04. 8:00 0.0 l/m2 in 12 Std. -
Ortszeit Niederschlagsmenge Niederschlagsart
Sa, 21.04. 3:30 0.0 l/m2 in 1 Std. -
Sa, 21.04. 3:20 keine Meldung -
Sa, 21.04. 3:10 keine Meldung -
Sa, 21.04. 3:00 0.0 l/m2 in 1 Std. -
Sa, 21.04. 2:50 keine Meldung -
Sa, 21.04. 2:40 keine Meldung -
Sa, 21.04. 2:30 0.0 l/m2 in 1 Std. -
Sa, 21.04. 2:00 0.0 l/m2 in 1 Std. -
Sa, 21.04. 1:30 0.0 l/m2 in 1 Std. -
Sa, 21.04. 1:00 0.0 l/m2 in 1 Std. -
Sa, 21.04. 0:30 0.0 l/m2 in 1 Std. -
Ortszeit Stärke Spitze Richtung
km/h Bft. km/h Grad Sektor
Sa, 21.04. 2:00 4 1 18 270° W
Fr, 20.04. 20:00 6 1 20 320° NW
Fr, 20.04. 14:00 6 1 17 130° SO
Fr, 20.04. 8:00 7 2 11 90° O
Fr, 20.04. 2:00 7 2 18 100° O
Do, 19.04. 20:00 7 2 28 110° O
Do, 19.04. 14:00 14 3 32 120° SO
Do, 19.04. 8:00 17 3 24 120° SO
Ortszeit Stärke Spitze Richtung
km/h Bft. km/h Grad Sektor
Sa, 21.04. 3:30 6 1 9 270° W
Sa, 21.04. 3:20 6 1 - 270° W
Sa, 21.04. 3:10 7 2 - 260° W
Sa, 21.04. 3:00 6 1 7 250° W
Sa, 21.04. 2:50 6 1 - 250° W
Sa, 21.04. 2:40 6 1 - 250° W
Sa, 21.04. 2:30 4 1 7 260° W
Sa, 21.04. 2:00 4 1 11 270° W
Sa, 21.04. 1:30 6 1 9 270° W
Sa, 21.04. 1:00 7 2 11 260° W
Sa, 21.04. 0:30 7 2 11 270° W
Ortszeit Untergrenze Bedeckung Gattung
total tief tief mittel hoch
Sa, 21.04. 2:00 10500 m 7/8 0/8 - - -
Fr, 20.04. 20:00 - 8/8 - - - -
Fr, 20.04. 14:00 - 8/8 - - - -
Fr, 20.04. 8:00 12000 m 8/8 0/8 - - -
Fr, 20.04. 2:00 12000 m 8/8 0/8 - - -
Do, 19.04. 20:00 10500 m 8/8 0/8 - - -
Do, 19.04. 14:00 10500 m 0/8 0/8 - - -
Do, 19.04. 8:00 - 0/8 0/8 - - -
Ortszeit Bedeckungsgrad in Achtel und Wolkenuntergrenze
Sa, 21.04. 3:30 9 9 9
Sa, 21.04. 3:20 9 9 9
Sa, 21.04. 3:10 9 9 9
Sa, 21.04. 3:00 9 9 9
Sa, 21.04. 2:50 9 9 9
Sa, 21.04. 2:40 2(2700m) 7(10500m) 7(10500m)
Sa, 21.04. 2:30 1(2700m) 5(10500m) 7(10500m)
Sa, 21.04. 2:00 7(10500m) 7(10500m) 7(10500m)
Sa, 21.04. 1:30 8(10500m) 8(10500m)
Sa, 21.04. 1:00 8(10500m) 8(10500m)
Sa, 21.04. 0:30 8(9000m) 8(10500m)
Ortszeit Luftdruck NN (hPa) Tendenz (hPa in 3 Std.)
Sa, 21.04. 2:00 1021 + 0,2
Fr, 20.04. 20:00 1020 - 0,9
Fr, 20.04. 14:00 1023 - 0,9
Fr, 20.04. 8:00 1024 - 0,2
Fr, 20.04. 2:00 1025 - 0,5
Do, 19.04. 20:00 1024 - 0,8
Do, 19.04. 14:00 1027 - 1,1
Do, 19.04. 8:00 1028 - 0,3
Ortszeit Luftdruck NN (hPa) Tendenz (hPa in 3 Std.)
Sa, 21.04. 3:30 1021 - 0,4
Sa, 21.04. 3:20 1021 keine Meldung
Sa, 21.04. 3:10 1021 keine Meldung
Sa, 21.04. 3:00 1021 - 0,2
Sa, 21.04. 2:50 1021 keine Meldung
Sa, 21.04. 2:40 1021 keine Meldung
Sa, 21.04. 2:30 1021 + 0,1
Sa, 21.04. 2:00 1021 + 0,2
Sa, 21.04. 1:30 1022 + 0,6
Sa, 21.04. 1:00 1022 + 0,4
Sa, 21.04. 0:30 1021 + 0,4
Ortszeit Schneehöhe (cm)
Sa, 21.04. 2:00 0
Fr, 20.04. 20:00 0
Fr, 20.04. 14:00 0
Fr, 20.04. 8:00 0
Fr, 20.04. 2:00 0
Do, 19.04. 20:00 0
Do, 19.04. 14:00 0
Do, 19.04. 8:00 0
Ortszeit Schneehöhe (cm)
Sa, 21.04. 3:30 0
Sa, 21.04. 3:20 0
Sa, 21.04. 3:10 0
Sa, 21.04. 3:00 0
Sa, 21.04. 2:50 0
Sa, 21.04. 2:40 0
Sa, 21.04. 2:30 0
Sa, 21.04. 2:00 0
Sa, 21.04. 1:30 0
Sa, 21.04. 1:00 0
Sa, 21.04. 0:30 0
Link zu dieser Seite / Seite empfehlen

Das Wetter in ...